Погода в Дехрадуне

Индия     30°19′52″N   78°02′27″E
темп.,
°C
ветер,
м/с
пор.,
м/с
влажн.,
%
обл.,
%
осадки,
мм/ч
давл.,
гПа
погр.,
м
22 января, пт
пт2223:30+11всв22310 0.0 101622
02:30+11всв11300 0.0 101622
05:30+10св12300 0.0 101522
08:30+13всв11310 0.0 101625
11:30+20ю22202 0.0 1016668
14:30+21ю322594 0.0 10131014
17:30+15ююв124297 0.0 101323
20:30+13св2242100 0.0 101523
23 января, сб
сб2323:30+13св1239100 0.0 101623
02:30+13св1237100 0.0 101423
05:30+13св1135100 0.0 101323
08:30+15всв1136100 0.0 101427
11:30+20ююв3428100 0.0 1013825
14:30+21ю4531100 0.0 10111110
17:30+16юв224682 0.0 101154
20:30+16всв114797 0.0 101429
24 января, вс
вс2423:30+14ссв115792 0.4 101423
02:30+11ссв337716 1.4 101439
05:30+10св227611 1.8 101426
08:30+14св126869 0.3 101761
11:30+21ююв343552 0.3 10161504
14:30+22ю443113 0.0 10132473
17:30+17зюз12496 0.0 101424
20:30+14св225412 0.0 101825
25 января, пн
пн2523:30+13св22556 0.0 101930
02:30+12ссв12550 0.0 101932
05:30+11ссв22510 0.0 101825
08:30+14св12410 0.0 101960
11:30+22ююз22250 0.0 1017873
14:30+23юз33230 0.0 10142086
17:30+17юз22480 0.0 101537
20:30+14ссв22590 0.0 101824
26 января, вт
вт2623:30+13св22580 0.0 101927
02:30+12св22500 0.0 101824
05:30+11ссв11430 0.0 101723
08:30+14св11340 0.0 101852
11:30+22юз21260 0.0 1016826
14:30+22юз32270 0.0 10141826
17:30+17юз12460 0.0 101427
20:30+13ссв12560 0.0 101824